CAPE
1004 1122 1158 1189 1162 1173 1064 1084 1054 1078 989 947 582 708 834 666 725 599 678 543 583 655 735 854 767 1013 487 1122 1188 1128 1046 1083 801 398 958 1251 1186 1303 1319 1441 1208 1390 1324
1316 1386 1362 1312 1244 1137 1168 1141 1146 1035 1077 1063 921 715 810 868 801 435 467 478 348 254 275 542 573 777 624 924 933 1085 1029 661 692 952 799 1063 1301 1380 1228 1289 1234 916 1056
416 855 997 1107 1139 1232 1516 1440 1333 1250 1227 1165 1074 1015 1001 1216 1109 929 803 592 278 114 64 171 625 574 545 802 768 1015 540 524 1017 957 958 1227 1073 1177 1334 1560 1522 1464 1505
2 11 32 6 13 32 104 543 1434 1747 1600 1510 1378 1203 1165 1193 1267 1224 1117 972 639 389 207 192 334 649 602 552 608 1156 821 665 1048 788 970 1009 1234 1266 1456 1297 1159 1660 1247
1 2 5 0 0 0 0 0 0 483 1534 1729 1746 1574 1410 1391 1336 1249 1235 1187 1075 983 910 885 934 1041 1006 744 846 1030 1124 1049 1087 706 1036 1193 1195 1362 1287 1230 1462 1340 1033
0 0 0 0 0 0 0 0 0 0 175 1309 1638 1617 1578 1457 1210 890 1077 1266 1327 1025 1187 1258 1158 881 701 365 486 539 996 838 1016 788 929 1132 1211 1416 1429 1413 1433 999 542
1 0 0 0 0 0 0 0 0 0 0 747 1227 1613 1697 1656 1158 799 714 1277 1322 1264 1192 1360 1284 1082 1014 1185 696 421 420 471 673 1353 1267 1045 1235 1692 1437 1656 1512 1260 863
22 30 7 0 0 1 0 0 7 47 13 19 906 1486 1690 1781 1263 857 779 1147 1355 1477 1566 1554 1430 1160 1228 1232 1253 1228 1147 1277 1029 1062 1311 1402 1677 1792 1775 1535 1568 1422 1065
45 62 71 86 38 63 64 136 78 114 348 545 878 1337 1628 1881 1182 874 763 1146 1374 1461 1536 1461 1431 1395 1319 891 957 1073 1000 1142 1192 1102 937 991 1126 890 852 1283 1090 904 645
0 0 20 165 138 118 164 171 0 26 366 568 864 1389 1576 1846 1380 826 756 1285 1395 1467 1414 1434 1073 1324 1279 831 958 1080 1137 1287 1572 1428 992 559 345 589 278 797 1132 1000 830
0 0 0 97 176 154 352 348 107 62 1 85 650 1216 1235 1544 1854 806 692 1190 1372 1549 1314 1125 1068 677 685 618 536 1288 1138 1247 1344 1046 1032 1040 1192 1107 929 518 709 833 741
0 0 0 39 178 240 396 468 249 159 62 6 3 386 1292 1410 950 353 420 1019 1162 1519 1496 1355 1348 855 446 390 338 608 794 780 1211 1311 1248 1192 1183 1056 732 453 247 134 169
0 0 0 39 325 352 460 513 378 158 109 2 0 2 26 98 155 117 116 101 284 820 841 739 782 214 25 226 247 239 153 240 379 552 1045 1063 1017 1065 755 150 15 0 0
1 0 0 103 402 397 385 335 194 152 135 20 0 0 1 0 0 0 0 0 0 0 0 0 0 98 188 294 133 38 16 14 30 179 445 742 433 83 33 1 1 0 0
4 0 0 240 505 420 297 156 89 47 63 99 59 17 1 1 0 0 0 0 0 0 0 0 0 0 0 31 85 89 53 87 116 126 142 146 57 25 12 0 0 0 0
4 1 24 192 329 451 297 201 46 0 0 69 11 6 33 1 0 0 0 0 0 2 5 27 16 17 21 36 65 97 69 52 88 63 49 33 23 27 1 0 0 0 0
4 9 46 21 184 267 337 343 166 65 5 26 8 0 0 0 2 0 0 1 0 0 69 119 134 163 90 65 72 59 39 53 63 73 40 10 18 28 0 0 0 0 0
2 2 22 63 66 93 154 198 295 92 47 88 20 0 0 0 0 0 0 0 7 0 22 73 98 132 111 49 28 1 4 10 25 46 32 36 21 0 0 0 0 0 2
5 4 5 35 102 54 19 64 66 82 92 61 19 0 0 0 0 0 1 3 12 0 0 2 175 170 97 27 69 67 68 56 50 35 35 24 3 0 0 0 0 0 0
5 2 1 2 47 81 62 55 53 35 66 89 85 96 0 0 0 0 0 0 0 53 154 128 134 129 98 39 35 121 123 121 101 89 95 32 1 0 0 0 0 1 1
2 3 1 3 31 71 64 62 54 41 43 82 103 133 10 2 11 0 0 0 0 0 76 127 115 132 138 126 38 18 90 217 292 351 285 185 105 53 13 0 1 2 4
3 4 5 6 3 23 58 76 54 47 38 63 128 79 0 0 15 24 17 0 2 0 0 28 120 198 214 147 120 115 108 121 255 377 401 333 250 135 88 37 5 7 7
4 3 4 5 4 3 2 3 4 26 68 76 100 121 120 84 20 10 0 0 4 41 41 34 40 156 224 263 248 215 237 308 436 526 461 312 163 137 149 100 92 54 33
4 3 5 6 5 5 5 3 3 4 2 1 3 12 24 39 58 130 148 161 140 50 4 17 76 27 147 298 345 412 372 459 541 522 398 311 344 284 254 192 145 157 144
1 3 4 4 4 4 5 4 5 7 6 6 7 5 5 4 3 1 2 2 1 1 2 77 328 429 457 354 584 661 605 284 217 274 324 378 413 293 267 57 83 178 161
1 2 2 2 2 3 3 4 5 6 6 6 6 5 5 5 6 6 3 3 3 3 4 3 1 0 0 46 96 0 0 0 7 0 30 281 350 279 117 41 80 205 158
CIN
-126 -93 -101 -109 -97 -72 -68 -93 -90 -65 -59 -50 -31 -28 -31 -27 -26 -29 -32 -22 -25 -26 -10 -5 -10 -12 -11 -3 -7 -4 -5 -6 -4 -4 -22 -22 -31 -24 -16 -22 -26 -22 -18
-120 -101 -101 -65 -61 -57 -41 -35 -55 -88 -77 -63 -46 -32 -23 -25 -25 -22 -16 -54 -55 -69 -83 -20 -14 -8 -11 -7 -4 -9 -7 -16 -6 -5 -2 -9 -24 -17 -27 -29 -19 -15 -24
-296 -299 -231 -225 -148 -78 -27 -26 -36 -54 -66 -79 -72 -58 -48 -30 -29 -40 -43 -46 -64 -91 -54 -44 -19 -13 -11 -4 -9 -3 -20 -15 -6 -10 -10 -3 -17 -20 -16 -25 -27 -21 -25
-511 -548 -483 -427 -390 -164 -290 -150 -24 -8 -26 -50 -79 -81 -59 -49 -29 -26 -32 -32 -37 -54 -67 -76 -43 -13 -12 -12 -10 -8 -16 -17 -13 -32 -17 -5 -5 -7 -18 -11 -11 -1 -24
-132 -391 -499 0 0 0 0 0 0 -171 -41 -47 -35 -54 -59 -34 -38 -40 -14 -28 -16 -16 -20 -33 -25 -10 -15 -20 -11 -7 -6 -6 -4 -14 -1 -1 -6 -14 -7 -2 -7 -4 -23
0 0 0 0 0 0 0 0 0 0 -273 -96 -80 -61 -79 -82 -86 -124 -51 -14 -19 -23 -14 -16 -20 -43 -44 -52 -33 -31 -16 -13 -8 -7 -5 -4 -12 -14 -1 -5 0 -17 -52
-76 0 0 0 0 0 0 0 0 0 0 -158 -131 -88 -75 -104 -148 -160 -166 -30 -7 -18 -18 -14 -12 -25 -43 -14 -41 -55 -54 -52 -33 -2 0 -16 -7 -6 -6 -2 -3 -6 -17
-195 -141 -110 0 0 0 0 0 -423 -356 -221 -398 -143 -103 -110 -125 -153 -162 -160 -90 -21 -7 -8 -11 -9 -6 -29 -23 -11 -5 -8 -8 -30 -24 -14 -10 -2 -3 -2 0 0 0 -10
-136 -141 -127 -107 -143 -113 -110 -108 -236 -283 -192 -177 -121 -77 -63 -125 -189 -182 -135 -94 -64 -10 -2 -6 -8 -11 -8 -47 -11 -1 -3 -1 -6 -25 -34 -29 -29 -28 -27 -1 0 -3 -31
0 0 -241 -87 -93 -73 -59 -66 -52 -289 -100 -123 -86 -30 -67 -81 -180 -187 -158 -41 -75 -39 -41 -18 -43 -15 -28 -64 -25 -8 0 -7 0 -3 -22 -81 -116 -63 -116 -30 -1 0 0
0 0 0 -113 -86 -86 -36 -27 -69 -170 -77 -271 -55 -10 -58 -84 -66 -207 -168 -75 -55 -65 -35 -40 -35 -98 -71 -78 -74 -2 -9 -6 -3 -11 -8 -5 0 -11 -25 -96 -45 -15 -4
0 0 0 -104 -94 -67 -39 -20 -46 -73 -163 -182 -249 -82 -14 -21 -88 -244 -225 -86 -78 -37 -28 -34 -15 -62 -78 -85 -130 -83 -56 -38 -2 -1 -5 -4 -9 -15 -37 -89 -128 -176 -118
0 0 0 -94 -73 -56 -38 -21 -25 -103 -57 -25 0 -1 -172 -196 -206 -318 -342 -320 -215 -58 -61 -84 -63 -134 -208 -110 -140 -151 -186 -151 -104 -82 -32 -30 -19 -8 -26 -177 -298 0 0
0 0 0 -93 -54 -50 -43 -39 -63 -60 -54 -34 0 0 0 0 0 0 0 0 0 0 0 0 0 -121 -107 -97 -180 -317 -317 -294 -264 -148 -65 -19 -72 -189 -205 0 0 0 0
0 0 0 -55 -46 -39 -53 -56 -63 -94 -92 -11 -10 -3 0 -1 0 0 0 0 0 0 0 0 0 0 0 -266 -233 -225 -293 -240 -212 -209 -181 -164 -192 -226 -203 0 0 0 0
0 -1 -20 -25 -33 -32 -47 -41 -101 0 0 -87 -92 -79 -29 -2 0 0 0 0 0 -102 -23 -181 -279 -261 -246 -218 -188 -200 -267 -267 -222 -266 -285 -284 -263 -189 -1 0 0 0 0
-2 0 -1 -59 -20 -30 -28 -26 -24 -37 -125 -137 -167 -4 0 0 -103 0 0 -72 0 -101 -120 -131 -84 -77 -117 -154 -173 -192 -239 -248 -236 -253 -319 -332 -298 -280 0 0 -1 0 0
-1 -7 -1 -28 -24 -45 -29 -20 -21 -20 -22 -49 -130 0 0 0 0 0 0 -4 -90 0 -185 -104 -97 -102 -112 -144 -191 -64 -280 -266 -244 -190 -186 -172 -206 0 0 0 0 0 -1
0 0 0 -1 -43 -72 -60 -63 -42 -18 -25 -22 -72 0 0 0 0 0 0 -54 -154 0 0 -38 -59 -79 -104 -177 -121 -136 -164 -177 -186 -208 -208 -185 -140 0 0 0 0 0 0
0 0 0 -5 0 0 -11 -6 -8 -17 -16 -34 -10 -23 0 0 0 0 0 0 -92 -154 -86 -102 -102 -90 -91 -148 -152 -89 -78 -84 -105 -128 -95 -101 -31 0 0 0 0 -1 -1
0 0 0 -1 -1 0 0 -1 0 -3 -6 -9 -11 -17 -116 -110 -66 0 0 0 0 0 -135 -115 -104 -96 -98 -115 -143 -169 -104 -66 -51 -38 -40 -46 -35 -48 -82 -1 -2 -2 -1
0 0 0 0 0 0 0 0 0 -1 -4 -7 -8 -15 0 0 -44 -44 -66 0 -30 0 0 -159 -119 -98 -92 -101 -123 -138 -121 -96 -63 -47 -37 -38 -53 -32 -152 -40 -5 -1 -1
0 0 0 0 0 0 0 0 0 0 0 -1 -4 -5 -4 -12 -20 -35 0 0 -54 -79 -95 -147 -150 -113 -87 -100 -116 -108 -85 -66 -43 -29 -23 -23 -21 -27 -20 -34 -5 -11 -51
0 0 0 0 0 0 0 0 0 0 0 0 0 -1 -5 -7 -14 -21 -36 -45 -56 -77 -105 -123 -135 -144 -126 -115 -102 -103 -95 -83 -50 -35 -38 -32 -14 -9 0 -1 -4 -2 -3
0 0 0 0 0 0 0 0 0 0 0 0 0 0 0 0 0 0 0 0 0 -1 0 -64 -50 -51 -63 -89 -70 -50 -50 -135 -125 -81 -42 -26 -17 -12 0 -47 -26 -5 -2
0 0 0 0 0 0 0 0 0 0 0 0 0 0 0 0 0 0 0 0 0 0 0 0 -1 0 0 -94 -125 0 0 0 -87 -22 -92 -35 -24 -22 -45 -68 -53 -12 -2
Wind_Speed
7 7 7 8 10 14 8 9 13 23 22 16 11 27 28 30 29 14 18 14 18 21 30 32 28 23 23 19 16 16 18 16 17 16 17 18 19 20 20 19 19 22 20
10 10 11 13 14 14 19 29 19 11 13 11 17 17 21 20 25 24 21 15 21 19 34 37 38 27 23 20 18 16 16 17 19 19 21 18 19 21 22 21 19 17 23
11 9 13 12 14 18 19 22 27 31 28 18 15 13 13 15 19 20 16 12 10 11 14 40 38 37 26 20 16 15 16 18 15 17 20 19 22 22 21 19 19 21 23
21 20 16 21 18 19 22 25 27 32 20 16 14 11 12 12 13 17 15 13 10 12 15 24 31 32 16 15 15 16 16 16 14 14 18 21 22 24 25 26 26 23 26
26 25 28 27 26 30 30 32 35 35 32 24 16 11 10 11 11 13 13 13 11 12 19 23 24 21 13 11 9 20 18 17 17 15 18 19 21 23 25 24 25 27 27
26 27 28 27 28 26 28 33 34 36 37 25 19 13 10 10 11 11 10 11 11 10 11 11 12 13 12 14 12 20 20 17 19 21 22 25 28 24 25 25 25 27 27
28 28 28 28 29 30 27 27 40 40 38 23 15 11 14 13 12 12 12 11 11 11 11 11 11 14 16 19 14 13 15 15 20 27 26 29 30 27 26 21 22 24 25
29 29 29 30 31 30 29 30 39 43 40 30 22 16 13 14 14 14 13 12 12 12 13 12 14 18 13 13 13 15 16 20 24 26 28 30 29 26 20 21 25 26 25
31 31 32 31 32 31 31 34 39 43 45 28 39 18 18 16 16 16 15 15 15 17 19 19 17 18 19 18 23 26 23 25 25 22 26 30 32 30 26 27 28 28 26
33 34 35 33 33 35 34 34 35 35 41 39 42 29 21 22 19 19 18 18 17 17 18 20 20 23 23 18 18 21 23 24 24 24 25 26 24 25 25 22 28 24 27
32 33 34 33 34 35 36 35 36 36 37 35 36 36 28 27 28 23 22 22 23 21 20 21 25 23 26 24 21 24 22 26 25 27 27 26 24 22 21 19 17 18 23
33 33 32 33 33 35 35 34 34 35 36 37 38 35 31 30 29 30 28 26 29 28 24 26 28 24 26 24 25 33 30 24 22 21 24 24 23 24 21 19 19 20 22
33 32 32 33 31 32 32 33 34 33 34 36 37 37 30 29 31 32 32 35 35 32 28 25 24 22 23 24 30 29 28 22 17 13 15 19 20 21 20 19 18 20 21
31 31 31 31 30 29 29 29 30 30 31 32 31 31 33 30 26 30 29 28 26 29 28 25 24 23 22 25 30 29 29 25 22 22 22 19 18 18 19 18 19 18 21
29 29 32 29 30 29 28 28 30 29 28 29 29 30 29 30 27 27 29 31 25 32 32 27 25 28 30 30 30 29 26 26 22 20 19 18 19 19 20 18 17 16 18
26 27 27 28 27 26 26 29 27 28 27 25 27 25 24 23 17 27 31 34 35 50 46 35 35 34 34 30 29 28 25 25 24 23 22 20 20 19 17 14 10 8 13
21 25 26 27 29 28 28 27 30 29 27 27 27 27 22 21 19 21 19 18 17 20 29 35 34 31 28 27 26 27 25 23 23 22 21 19 16 14 13 13 13 12 11
27 28 27 27 28 27 28 29 29 30 31 29 27 27 25 22 24 20 20 18 23 11 30 11 25 26 24 24 24 25 24 23 22 23 24 21 19 19 18 18 16 17 17
28 23 26 27 26 26 27 28 29 30 30 29 28 26 24 23 21 17 13 18 14 15 18 27 27 25 24 23 25 24 25 25 24 24 24 24 23 23 22 18 18 18 18
21 24 25 23 25 23 23 24 26 29 30 28 26 26 22 20 22 24 20 22 22 20 20 24 27 26 25 25 25 26 28 27 27 28 26 25 24 22 23 22 20 20 19
17 21 24 24 24 23 23 24 24 26 27 26 27 23 20 21 22 22 23 23 23 24 26 27 26 25 25 26 26 27 27 28 27 28 27 26 27 26 25 24 22 21 22
21 21 25 25 25 24 24 24 24 25 25 24 21 20 19 20 22 21 22 23 26 25 25 25 27 26 26 25 26 28 29 29 28 28 29 30 29 27 26 24 24 23 21
29 28 27 26 25 25 24 24 23 24 25 25 25 25 23 23 24 27 28 28 27 28 27 27 28 31 30 31 29 28 30 31 30 30 30 31 30 29 27 26 26 27 24
30 29 29 29 28 27 27 26 26 25 25 25 25 25 26 27 26 26 25 26 27 28 30 31 31 30 32 33 30 30 29 28 28 27 27 29 28 24 24 24 25 26 28
32 31 30 30 29 28 27 26 26 25 25 25 25 25 25 27 26 28 28 28 27 26 27 28 27 29 29 26 31 33 32 30 29 29 27 25 25 24 20 20 23 26 26
33 33 32 31 30 29 28 27 27 27 26 26 26 26 26 26 26 27 27 27 27 26 26 26 27 29 32 32 31 33 36 36 33 30 29 27 25 21 19 19 22 24 25
Wind_Direction
325 321 317 310 304 299 275 271 284 288 289 285 235 284 281 279 282 284 286 289 291 291 279 273 276 282 286 294 300 304 302 307 312 317 320 320 319 318 320 325 326 310 324
334 331 324 323 317 309 299 284 294 275 282 266 287 284 287 285 284 285 288 290 290 292 277 266 263 277 282 287 293 297 299 302 305 309 305 313 313 314 312 317 326 333 311
341 343 330 327 320 311 305 298 290 281 285 289 282 274 274 280 282 282 283 279 259 240 247 255 258 260 276 283 289 292 294 298 306 307 306 307 302 303 311 318 321 319 317
307 308 314 314 318 305 302 297 290 280 294 289 279 249 238 257 272 281 277 272 249 216 196 196 208 234 262 278 286 288 292 296 301 308 306 299 300 295 297 295 298 312 310
308 299 302 306 306 292 289 285 277 277 281 290 288 270 258 252 259 267 270 269 257 213 200 198 203 203 218 235 261 282 287 293 297 301 300 298 297 297 296 299 306 304 311
315 308 303 304 300 302 289 286 282 276 275 288 287 273 252 248 244 244 250 256 252 241 222 234 257 254 246 224 234 281 285 288 290 291 292 290 288 296 295 296 303 310 317
317 313 309 305 302 299 299 296 276 274 276 285 278 254 234 248 253 240 228 253 258 247 259 265 255 264 269 275 260 263 275 274 281 283 286 286 287 293 295 304 309 314 319
314 315 313 307 303 302 298 294 279 274 276 283 274 237 245 240 246 238 233 249 260 254 262 254 268 276 266 260 263 277 281 282 281 281 282 286 289 294 301 305 308 313 317
310 309 308 307 303 302 300 294 288 276 267 281 273 254 243 247 235 230 233 250 260 269 273 272 269 272 274 272 276 277 281 283 285 287 287 285 285 288 294 299 303 308 316
307 306 304 304 303 298 295 298 295 287 275 278 272 273 257 263 254 235 233 251 258 266 270 272 270 273 274 268 270 277 280 283 287 289 290 288 289 292 294 299 302 310 312
306 307 306 303 302 300 293 290 291 286 286 284 280 275 273 267 266 246 235 248 261 265 270 272 273 271 271 272 272 276 278 283 285 286 289 290 291 294 297 300 302 305 310
303 304 305 304 302 297 294 291 291 290 290 286 283 284 277 272 263 259 249 242 256 262 267 270 271 276 274 274 274 269 274 283 288 288 288 289 291 294 297 300 302 304 308
300 300 301 300 300 295 299 294 293 295 295 292 288 284 283 274 267 265 258 255 256 259 264 269 276 277 278 279 270 274 276 285 290 286 287 292 295 300 303 305 306 307 306
303 299 295 295 295 297 297 297 294 299 300 299 298 295 283 274 271 263 257 256 255 261 263 271 276 277 276 274 267 272 275 283 290 293 297 302 306 306 306 307 305 306 304
306 301 291 290 288 289 294 296 291 293 299 301 301 303 299 285 274 262 251 250 251 255 262 269 272 264 263 266 266 273 284 287 289 294 295 301 305 307 307 312 312 310 307
311 304 297 290 289 292 298 294 297 293 293 303 300 315 315 303 315 279 269 256 259 255 251 257 259 260 261 267 270 278 284 284 288 293 296 300 305 310 312 316 318 315 313
323 308 300 293 284 288 291 296 292 288 291 285 285 286 308 303 288 261 283 267 256 229 238 250 255 258 264 270 277 280 284 288 291 293 297 299 303 307 311 309 310 311 312
308 297 302 296 290 295 295 288 288 287 283 282 286 287 294 300 285 300 263 247 244 182 234 203 263 266 273 278 282 284 287 290 292 293 295 296 296 299 304 303 303 306 309
308 323 302 295 298 299 300 294 289 285 284 289 288 289 295 289 286 293 292 268 273 269 269 263 265 270 276 282 285 286 288 290 290 291 291 291 293 292 292 294 296 297 301
354 321 318 324 312 316 312 305 296 289 286 292 292 289 299 304 286 275 282 278 275 277 277 276 276 279 281 285 288 289 289 291 290 289 290 290 289 288 287 287 288 291 290
24 357 331 330 324 325 319 312 308 300 291 292 292 296 300 298 294 292 288 286 284 282 282 281 282 282 284 288 289 289 288 289 292 292 292 292 291 289 287 284 282 284 287
20 15 347 337 327 323 322 322 315 306 301 301 306 308 304 300 300 299 295 290 286 286 285 285 284 284 286 288 289 290 290 291 291 290 291 293 293 291 286 282 278 277 278
3 358 353 341 333 331 333 330 325 317 306 301 301 302 306 304 301 295 293 290 288 285 285 285 284 284 287 288 288 289 290 292 292 292 291 292 293 291 286 280 276 274 274
2 3 360 352 343 338 334 330 328 325 320 313 310 308 305 302 302 302 301 297 291 287 285 285 285 285 287 288 289 291 292 293 294 294 294 295 296 297 290 283 277 275 274
10 8 3 359 354 349 343 342 338 329 323 320 322 322 314 303 307 302 299 298 299 298 296 294 293 292 292 291 291 293 294 294 292 294 297 296 294 293 292 283 277 274 273
14 13 12 9 5 0 356 350 343 337 333 330 327 325 318 315 308 302 302 303 304 303 302 301 299 295 294 293 295 294 292 292 293 294 293 291 293 293 292 282 277 272 271